,,Stat5,,Stat1,,Stat2,,Stat3,,Stat4,,Wind1,,Wind1,
time,status,PA1M_AVG,status,PR1M_SUM,status,RH1M_AVG,status,SR1M_AVG,status,TA1M_AVG,status,W1dAve1m,status,W1sAve1m,
2002-12-25, 00:00:01,VALID,916.716,VALID,0,VALID,96.9166,VALID,0,VALID,19.8842,VALID,144,VALID,1.93174,
2002-12-25, 00:01:00,VALID,916.716,VALID,0,VALID,96.8505,VALID,-0.0339617,VALID,19.8777,VALID,139,VALID,1.70724,
2002-12-25, 00:02:00,VALID,916.718,VALID,0,VALID,96.7589,VALID,0,VALID,19.8707,VALID,138,VALID,2.08926,
2002-12-25, 00:03:00,VALID,916.696,VALID,0,VALID,96.6992,VALID,-0.0339617,VALID,19.8933,VALID,139,VALID,1.35026,
2002-12-25, 00:04:00,VALID,916.697,VALID,0,VALID,96.6776,VALID,-0.0169808,VALID,19.9065,VALID,151,VALID,1.86328,
2002-12-25, 00:05:00,VALID,916.682,VALID,0,VALID,96.7157,VALID,0,VALID,19.8998,VALID,159,VALID,1.11999,
2002-12-25, 00:06:00,VALID,916.681,VALID,0,VALID,96.7653,VALID,0,VALID,19.8866,VALID,131,VALID,1.71234,
2002-12-25, 00:07:00,VALID,916.7,VALID,0,VALID,96.7755,VALID,0.0339617,VALID,19.8832,VALID,131,VALID,1.05871,
2002-12-25, 00:08:00,VALID,916.691,VALID,0,VALID,96.778,VALID,0.0339617,VALID,19.8799,VALID,148,VALID,1.57422,
2002-12-25, 00:09:00,VALID,916.673,VALID,0,VALID,96.8009,VALID,0.0679233,VALID,19.86,VALID,118,VALID,1.39714,
2002-12-25, 00:10:00,VALID,916.686,VALID,0,VALID,96.8073,VALID,0.0339617,VALID,19.8503,VALID,136,VALID,1.51324,
2002-12-25, 00:11:00,VALID,916.682,VALID,0,VALID,96.8378,VALID,0.0339617,VALID,19.8339,VALID,127,VALID,1.33699,
2002-12-25, 00:12:00,VALID,916.69,VALID,0,VALID,96.9014,VALID,0,VALID,19.8377,VALID,136,VALID,0.95148,
2002-12-25, 00:13:00,VALID,916.7,VALID,0,VALID,96.9166,VALID,0.0509425,VALID,19.8342,VALID,123,VALID,1.30512,
2002-12-25, 00:14:00,VALID,916.693,VALID,0,VALID,96.9344,VALID,0,VALID,19.8215,VALID,132,VALID,1.27956,
2002-12-25, 00:15:00,VALID,916.691,VALID,0,VALID,96.9306,VALID,0.0509425,VALID,19.8145,VALID,142,VALID,1.84961,
2002-12-25, 00:16:00,VALID,916.689,VALID,0,VALID,96.9217,VALID,0.0849042,VALID,19.8312,VALID,129,VALID,1.80284,
2002-12-25, 00:17:00,VALID,916.686,VALID,0,VALID,96.9039,VALID,0.0339617,VALID,19.8242,VALID,125,VALID,1.21009,
2002-12-25, 00:18:00,VALID,916.696,VALID,0,VALID,96.8289,VALID,0,VALID,19.8444,VALID,131,VALID,1.6271,
2002-12-25, 00:19:00,VALID,916.7,VALID,0,VALID,96.7729,VALID,0.0339617,VALID,19.8275,VALID,134,VALID,0.980078,
2002-12-25, 00:20:00,VALID,916.695,VALID,0,VALID,96.7322,VALID,0.0339617,VALID,19.8344,VALID,111,VALID,1.16365,
2002-12-25, 00:21:00,VALID,916.696,VALID,0,VALID,96.6941,VALID,0,VALID,19.8277,VALID,113,VALID,1.51964,
2002-12-25, 00:22:00,VALID,916.671,VALID,0,VALID,96.6737,VALID,0.0679233,VALID,19.8469,VALID,122,VALID,1.42559,
2002-12-25, 00:23:00,VALID,916.677,VALID,0,VALID,96.7144,VALID,0.101885,VALID,19.8394,VALID,108,VALID,1.21484,
2002-12-25, 00:24:00,VALID,916.673,VALID,0,VALID,96.7717,VALID,0.118866,VALID,19.8464,VALID,121,VALID,1.51138,
2002-12-25, 00:25:00,VALID,916.678,VALID,0,VALID,96.8111,VALID,0.101885,VALID,19.8327,VALID,135,VALID,1.28906,
2002-12-25, 00:26:00,VALID,916.678,VALID,0,VALID,96.8263,VALID,0.118866,VALID,19.8295,VALID,144,VALID,0.772135,
2002-12-25, 00:27:00,VALID,916.652,VALID,0,VALID,96.7984,VALID,0.186789,VALID,19.824,VALID,121,VALID,1.54519,
2002-12-25, 00:28:00,VALID,916.644,VALID,0,VALID,96.7831,VALID,0.118866,VALID,19.8305,VALID,127,VALID,0.809495,
2002-12-25, 00:29:00,VALID,916.637,VALID,0,VALID,96.6152,VALID,0.118866,VALID,19.8036,VALID,135,VALID,1.26912,
2002-12-25, 00:30:00,VALID,916.613,VALID,0,VALID,96.3724,VALID,0.101885,VALID,19.8101,VALID,140,VALID,1.45888,
2002-12-25, 00:31:00,VALID,916.641,VALID,0,VALID,96.2287,VALID,0.118866,VALID,19.823,VALID,118,VALID,0.968328,
2002-12-25, 00:32:00,VALID,916.628,VALID,0,VALID,96.0888,VALID,0.118866,VALID,19.8456,VALID,122,VALID,0.969835,
2002-12-25, 00:33:00,VALID,916.635,VALID,0,VALID,95.9845,VALID,0.118866,VALID,19.862,VALID,135,VALID,1.34544,
2002-12-25, 00:34:00,VALID,916.622,VALID,0,VALID,95.8586,VALID,0.101885,VALID,19.8752,VALID,140,VALID,2.14001,
2002-12-25, 00:35:00,VALID,916.593,VALID,0,VALID,95.7505,VALID,0.0849042,VALID,19.8913,VALID,153,VALID,1.64663,
2002-12-25, 00:36:00,VALID,916.594,VALID,0,VALID,95.715,VALID,0.0169808,VALID,19.9125,VALID,159,VALID,1.19151,
2002-12-25, 00:37:00,VALID,916.567,VALID,0,VALID,95.6425,VALID,0,VALID,19.902,VALID,171,VALID,1.46326,
2002-12-25, 00:38:00,VALID,916.554,VALID,0,VALID,95.6221,VALID,0.0169808,VALID,19.9088,VALID,148,VALID,1.34478,
2002-12-25, 00:39:00,VALID,916.542,VALID,0,VALID,95.5573,VALID,0.0169808,VALID,19.9088,VALID,145,VALID,0.910457,
2002-12-25, 00:40:00,VALID,916.547,VALID,0,VALID,95.186,VALID,0.0339617,VALID,19.8953,VALID,150,VALID,1.62159,
2002-12-25, 00:41:00,VALID,916.549,VALID,0,VALID,94.6837,VALID,0.0339617,VALID,19.9147,VALID,152,VALID,1.77436,
2002-12-25, 00:42:00,VALID,916.523,VALID,0,VALID,94.2501,VALID,0.0169808,VALID,19.9838,VALID,163,VALID,1.59457,
2002-12-25, 00:43:00,VALID,916.505,VALID,0,VALID,93.8915,VALID,0,VALID,20.0251,VALID,140,VALID,1.42779,
2002-12-25, 00:44:00,VALID,916.498,VALID,0,VALID,93.7783,VALID,0,VALID,20.0703,VALID,158,VALID,1.20725,
2002-12-25, 00:45:00,VALID,916.483,VALID,0,VALID,93.8622,VALID,0.0169808,VALID,20.0833,VALID,190,VALID,1.04405,
2002-12-25, 00:46:00,VALID,916.477,VALID,0,VALID,93.6804,VALID,0.0169808,VALID,20.0676,VALID,165,VALID,1.1104,
2002-12-25, 00:47:00,VALID,916.469,VALID,0,VALID,93.7465,VALID,0,VALID,20.0676,VALID,157,VALID,0.285979,
2002-12-25, 00:48:00,VALID,916.456,VALID,0,VALID,93.4947,VALID,0.0169808,VALID,20.0544,VALID,157,VALID,1.20399,
2002-12-25, 00:49:00,VALID,916.462,VALID,0,VALID,93.3752,VALID,0.0509425,VALID,20.0509,VALID,151,VALID,0.689286,
2002-12-25, 00:50:00,VALID,916.458,VALID,0,VALID,93.337,VALID,0.0339617,VALID,20.0571,VALID,171,VALID,0.967928,
2002-12-25, 00:51:00,VALID,916.457,VALID,0,VALID,93.1107,VALID,0.0339617,VALID,20.0475,VALID,161,VALID,0.967548,
2002-12-25, 00:52:00,VALID,916.437,VALID,0,VALID,93.0115,VALID,0.0169808,VALID,20.0487,VALID,146,VALID,0.92793,
2002-12-25, 00:53:00,VALID,916.445,VALID,0,VALID,92.4647,VALID,-0.0169808,VALID,20.0589,VALID,159,VALID,1.60238,
2002-12-25, 00:54:00,VALID,916.435,VALID,0,VALID,92.5436,VALID,-0.0509425,VALID,20.0907,VALID,177,VALID,1.27981,
2002-12-25, 00:55:00,VALID,916.438,VALID,0,VALID,92.644,VALID,-0.0169808,VALID,20.1238,VALID,146,VALID,0.39363,
2002-12-25, 00:56:00,VALID,916.427,VALID,0,VALID,92.5423,VALID,-0.0339617,VALID,20.1034,VALID,166,VALID,1.22416,
2002-12-25, 00:57:00,VALID,916.42,VALID,0,VALID,92.4278,VALID,-0.0169808,VALID,20.1136,VALID,157,VALID,1.04387,
2002-12-25, 00:58:00,VALID,916.396,VALID,0,VALID,92.4685,VALID,-0.0339617,VALID,20.1136,VALID,138,VALID,0.988051,
2002-12-25, 00:59:00,VALID,916.402,VALID,0,VALID,92.4406,VALID,-0.0509425,VALID,20.1071,VALID,149,VALID,1.34824,
2002-12-25, 01:00:00,VALID,916.373,VALID,0,VALID,92.3605,VALID,-0.0169808,VALID,20.1136,VALID,160,VALID,1.58203,
2002-12-25, 01:01:00,VALID,916.377,VALID,0,VALID,92.1646,VALID,-0.0169808,VALID,20.1295,VALID,150,VALID,1.4503,
2002-12-25, 01:02:00,VALID,916.359,VALID,0,VALID,92.3159,VALID,0,VALID,20.1355,VALID,144,VALID,1.39759,
2002-12-25, 01:03:00,VALID,916.376,VALID,0,VALID,92.5232,VALID,0,VALID,20.139,VALID,148,VALID,0.863076,
2002-12-25, 01:04:00,VALID,916.362,VALID,0,VALID,92.6148,VALID,-0.0339617,VALID,20.1265,VALID,111,VALID,1.55425,
2002-12-25, 01:05:00,VALID,916.355,VALID,0,VALID,92.7305,VALID,-0.0509425,VALID,20.1109,VALID,132,VALID,1.2935,
2002-12-25, 01:06:00,VALID,916.353,VALID,0,VALID,92.9009,VALID,0,VALID,20.1074,VALID,165,VALID,1.80686,
2002-12-25, 01:07:00,VALID,916.347,VALID,0,VALID,93.1132,VALID,-0.0169808,VALID,20.0907,VALID,154,VALID,1.63035,
2002-12-25, 01:08:00,VALID,916.341,VALID,0,VALID,93.0954,VALID,-0.0509425,VALID,20.0616,VALID,160,VALID,1.28547,
2002-12-25, 01:09:00,VALID,916.338,VALID,0,VALID,93.2073,VALID,-0.0339617,VALID,20.0619,VALID,160,VALID,1.3367,
2002-12-25, 01:10:00,VALID,916.327,VALID,0,VALID,93.3727,VALID,-0.0169808,VALID,20.0721,VALID,154,VALID,1.81445,
2002-12-25, 01:11:00,VALID,916.321,VALID,0,VALID,93.4362,VALID,-0.0339617,VALID,20.0559,VALID,143,VALID,1.39309,
2002-12-25, 01:12:00,VALID,916.307,VALID,0,VALID,93.3409,VALID,0,VALID,20.0261,VALID,123,VALID,1.82242,
2002-12-25, 01:13:00,VALID,916.291,VALID,0,VALID,93.3167,VALID,-0.0679233,VALID,20.0296,VALID,129,VALID,1.69824,
2002-12-25, 01:14:00,VALID,916.28,VALID,0,VALID,93.4184,VALID,-0.0339617,VALID,20.0161,VALID,141,VALID,1.26891,
2002-12-25, 01:15:00,VALID,916.268,VALID,0,VALID,93.3078,VALID,-0.0509425,VALID,20.0169,VALID,138,VALID,1.68683,
2002-12-25, 01:16:00,VALID,916.247,VALID,0,VALID,93.3103,VALID,-0.0509425,VALID,20.0002,VALID,154,VALID,1.97776,
2002-12-25, 01:17:00,VALID,916.222,VALID,0,VALID,93.2035,VALID,-0.0169808,VALID,20.0164,VALID,160,VALID,1.97548,
2002-12-25, 01:18:00,VALID,916.199,VALID,0,VALID,93.1806,VALID,-0.0169808,VALID,20.0395,VALID,149,VALID,1.61634,
2002-12-25, 01:19:00,VALID,916.196,VALID,0,VALID,93.3269,VALID,-0.0509425,VALID,20.043,VALID,138,VALID,1.42348,
2002-12-25, 01:20:00,VALID,916.187,VALID,0,VALID,93.5062,VALID,-0.0679233,VALID,20.0199,VALID,146,VALID,0.971834,
2002-12-25, 01:21:00,VALID,916.167,VALID,0,VALID,93.5774,VALID,-0.0339617,VALID,19.9876,VALID,128,VALID,1.81517,
2002-12-25, 01:22:00,VALID,916.149,VALID,0,VALID,93.4451,VALID,-0.0339617,VALID,19.9779,VALID,138,VALID,2.17905,
2002-12-25, 01:23:00,VALID,916.165,VALID,0,VALID,93.5062,VALID,0,VALID,19.9779,VALID,159,VALID,1.7105,
2002-12-25, 01:24:00,VALID,916.171,VALID,0,VALID,93.3714,VALID,-0.0679233,VALID,19.9776,VALID,147,VALID,1.97677,
2002-12-25, 01:25:00,VALID,916.172,VALID,0,VALID,93.2137,VALID,-0.0339617,VALID,19.9881,VALID,166,VALID,1.69243,
2002-12-25, 01:26:00,VALID,916.162,VALID,0,VALID,93.2328,VALID,-0.0679233,VALID,19.9943,VALID,144,VALID,1.33654,
2002-12-25, 01:27:00,VALID,916.164,VALID,0,VALID,93.3256,VALID,-0.0339617,VALID,20.0007,VALID,130,VALID,1.08333,
2002-12-25, 01:28:00,VALID,916.173,VALID,0,VALID,93.3854,VALID,-0.0339617,VALID,19.9809,VALID,156,VALID,0.931588,
2002-12-25, 01:29:00,VALID,916.174,VALID,0,VALID,93.4032,VALID,-0.0509425,VALID,19.9582,VALID,105,VALID,1.07607,
2002-12-25, 01:30:00,VALID,916.175,VALID,0,VALID,93.4807,VALID,-0.0339617,VALID,19.9488,VALID,115,VALID,1.08654,
2002-12-25, 01:31:00,VALID,916.191,VALID,0,VALID,93.4617,VALID,-0.0509425,VALID,19.9391,VALID,131,VALID,1.23077,
2002-12-25, 01:32:00,VALID,916.208,VALID,0,VALID,93.5723,VALID,-0.0339617,VALID,19.9393,VALID,126,VALID,1.50919,
2002-12-25, 01:33:00,VALID,916.215,VALID,0,VALID,93.702,VALID,-0.0169808,VALID,19.9296,VALID,117,VALID,1.16681,
2002-12-25, 01:34:00,VALID,916.235,VALID,0,VALID,93.7173,VALID,-0.0169808,VALID,19.9232,VALID,114,VALID,1.58066,
2002-12-25, 01:35:00,VALID,916.228,VALID,0,VALID,93.7885,VALID,-0.0339617,VALID,19.916,VALID,131,VALID,1.43446,
2002-12-25, 01:36:00,VALID,916.234,VALID,0,VALID,93.8406,VALID,-0.0339617,VALID,19.9264,VALID,97,VALID,0.502387,
2002-12-25, 01:37:00,VALID,916.236,VALID,0,VALID,93.9818,VALID,-0.0509425,VALID,19.9001,VALID,146,VALID,0.867804,
2002-12-25, 01:38:00,VALID,916.233,VALID,0,VALID,94.0339,VALID,0,VALID,19.8774,VALID,150,VALID,1.28146,
2002-12-25, 01:39:00,VALID,916.211,VALID,0,VALID,94.0911,VALID,-0.0849042,VALID,19.8615,VALID,145,VALID,0.83138,
2002-12-25, 01:40:00,VALID,916.216,VALID,0,VALID,94.0924,VALID,-0.0679233,VALID,19.8548,VALID,138,VALID,1.39487,
2002-12-25, 01:41:00,VALID,916.206,VALID,0,VALID,94.1763,VALID,-0.0849042,VALID,19.8546,VALID,144,VALID,1.27529,
2002-12-25, 01:42:00,VALID,916.195,VALID,0,VALID,94.2882,VALID,-0.0679233,VALID,19.8658,VALID,142,VALID,0.984976,
2002-12-25, 01:43:00,VALID,916.185,VALID,0,VALID,94.4688,VALID,-0.0679233,VALID,19.8424,VALID,132,VALID,1.28652,
2002-12-25, 01:44:00,VALID,916.171,VALID,0,VALID,94.6023,VALID,-0.0509425,VALID,19.8295,VALID,122,VALID,1.13405,
2002-12-25, 01:45:00,VALID,916.17,VALID,0,VALID,94.6748,VALID,-0.0169808,VALID,19.827,VALID,141,VALID,1.27919,
2002-12-25, 01:46:00,VALID,916.169,VALID,0,VALID,94.6176,VALID,-0.0339617,VALID,19.8001,VALID,134,VALID,1.42248,
2002-12-25, 01:47:00,VALID,916.157,VALID,0,VALID,94.671,VALID,-0.0339617,VALID,19.7999,VALID,136,VALID,1.03425,
2002-12-25, 01:48:00,VALID,916.15,VALID,0,VALID,94.6875,VALID,-0.0169808,VALID,19.7969,VALID,151,VALID,1.36538,
2002-12-25, 01:49:00,VALID,916.14,VALID,0,VALID,94.6048,VALID,-0.0509425,VALID,19.7939,VALID,123,VALID,1.33984,
2002-12-25, 01:50:00,VALID,916.123,VALID,0,VALID,94.6125,VALID,-0.0169808,VALID,19.7937,VALID,113,VALID,1.40508,
2002-12-25, 01:51:00,VALID,916.115,VALID,0,VALID,94.6481,VALID,-0.0679233,VALID,19.7972,VALID,121,VALID,1.27951,
2002-12-25, 01:52:00,VALID,916.111,VALID,0,VALID,94.69,VALID,-0.0169808,VALID,19.7865,VALID,130,VALID,1.21766,
2002-12-25, 01:53:00,VALID,916.103,VALID,0,VALID,94.8096,VALID,0.0169808,VALID,19.7865,VALID,138,VALID,1.57221,
2002-12-25, 01:54:00,VALID,916.09,VALID,0,VALID,94.8401,VALID,0.0339617,VALID,19.7701,VALID,140,VALID,1.65728,
2002-12-25, 01:55:00,VALID,916.079,VALID,0,VALID,94.6544,VALID,0,VALID,19.7631,VALID,125,VALID,2.0076,
2002-12-25, 01:56:00,VALID,916.088,VALID,0,VALID,94.6951,VALID,0.0339617,VALID,19.7698,VALID,107,VALID,1.31229,
2002-12-25, 01:57:00,VALID,916.092,VALID,0,VALID,94.8007,VALID,0.0169808,VALID,19.7765,VALID,126,VALID,1.08225,
2002-12-25, 01:58:00,VALID,916.099,VALID,0,VALID,94.9189,VALID,0,VALID,19.7733,VALID,127,VALID,0.612253,
2002-12-25, 01:59:00,VALID,916.082,VALID,0,VALID,95.0245,VALID,0,VALID,19.7504,VALID,127,VALID,1.26668,
2002-12-25, 02:00:00,VALID,916.083,VALID,0,VALID,95.0677,VALID,0,VALID,19.7377,VALID,121,VALID,1.7622,
2002-12-25, 02:01:00,VALID,916.077,VALID,0,VALID,95.0995,VALID,0,VALID,19.731,VALID,118,VALID,1.30273,
2002-12-25, 02:02:00,VALID,916.09,VALID,0,VALID,95.1415,VALID,0.0169808,VALID,19.7345,VALID,95,VALID,0.942229,
2002-12-25, 02:03:00,VALID,916.079,VALID,0,VALID,95.2101,VALID,0,VALID,19.728,VALID,111,VALID,1.35114,
2002-12-25, 02:04:00,VALID,916.072,VALID,0,VALID,95.2355,VALID,0,VALID,19.7124,VALID,131,VALID,1.09102,
2002-12-25, 02:05:00,VALID,916.067,VALID,0,VALID,95.2673,VALID,0.0169808,VALID,19.6957,VALID,113,VALID,1.07545,
2002-12-25, 02:06:00,VALID,916.077,VALID,0,VALID,95.3004,VALID,0.0169808,VALID,19.6957,VALID,107,VALID,1.31429,
2002-12-25, 02:07:00,VALID,916.076,VALID,0,VALID,95.3068,VALID,0,VALID,19.6925,VALID,141,VALID,0.986378,
2002-12-25, 02:08:00,VALID,916.075,VALID,0,VALID,95.2953,VALID,0,VALID,19.6858,VALID,136,VALID,1.05143,
2002-12-25, 02:09:00,VALID,916.068,VALID,0,VALID,95.2673,VALID,0,VALID,19.6766,VALID,126,VALID,1.14231,
2002-12-25, 02:10:00,VALID,916.059,VALID,0,VALID,95.3207,VALID,0,VALID,19.6895,VALID,157,VALID,0.844151,
2002-12-25, 02:11:00,VALID,916.072,VALID,0,VALID,95.3742,VALID,0,VALID,19.6704,VALID,130,VALID,1.58758,
2002-12-25, 02:12:00,VALID,916.056,VALID,0,VALID,95.3742,VALID,0,VALID,19.6768,VALID,123,VALID,1.39864,
2002-12-25, 02:13:00,VALID,916.032,VALID,0,VALID,95.2686,VALID,0,VALID,19.6634,VALID,127,VALID,1.07918,
2002-12-25, 02:14:00,VALID,916.031,VALID,0,VALID,95.2597,VALID,0.0169808,VALID,19.6701,VALID,133,VALID,1.46398,
2002-12-25, 02:15:00,VALID,916.031,VALID,0,VALID,95.2216,VALID,0.0169808,VALID,19.6768,VALID,124,VALID,1.42124,
2002-12-25, 02:16:00,VALID,916.023,VALID,0,VALID,95.1923,VALID,0,VALID,19.6803,VALID,120,VALID,1.38816,
2002-12-25, 02:17:00,VALID,916.019,VALID,0,VALID,95.0906,VALID,0,VALID,19.6833,VALID,121,VALID,1.32272,
2002-12-25, 02:18:00,VALID,916.023,VALID,0,VALID,95.1554,VALID,0,VALID,19.6761,VALID,89,VALID,0.904647,
2002-12-25, 02:19:00,VALID,916.017,VALID,0,VALID,95.186,VALID,0,VALID,19.6833,VALID,115,VALID,1.18349,
2002-12-25, 02:20:00,VALID,916.016,VALID,0,VALID,95.191,VALID,0,VALID,19.6768,VALID,112,VALID,1.65975,
2002-12-25, 02:21:00,VALID,916.025,VALID,0,VALID,95.1338,VALID,0,VALID,19.6669,VALID,118,VALID,1.65925,
2002-12-25, 02:22:00,VALID,916.031,VALID,0,VALID,95.1376,VALID,0,VALID,19.6706,VALID,115,VALID,1.66567,
2002-12-25, 02:23:00,VALID,916.038,VALID,0,VALID,95.1923,VALID,0,VALID,19.6736,VALID,97,VALID,1.51838,
2002-12-25, 02:24:00,VALID,916.061,VALID,0,VALID,95.2152,VALID,0,VALID,19.6704,VALID,114,VALID,1.87479,
2002-12-25, 02:25:00,VALID,916.061,VALID,0,VALID,95.1504,VALID,0,VALID,19.6632,VALID,126,VALID,1.63978,
2002-12-25, 02:26:00,VALID,916.059,VALID,0,VALID,95.1186,VALID,0,VALID,19.6865,VALID,115,VALID,1.91905,
2002-12-25, 02:27:00,VALID,916.048,VALID,0,VALID,95.0219,VALID,0.0169808,VALID,19.6895,VALID,112,VALID,1.51497,
2002-12-25, 02:28:00,VALID,916.046,VALID,0,VALID,94.8884,VALID,0,VALID,19.6997,VALID,119,VALID,1.40193,
2002-12-25, 02:29:00,VALID,916.029,VALID,0,VALID,94.8057,VALID,0,VALID,19.6965,VALID,101,VALID,1.125,
2002-12-25, 02:30:00,VALID,916.012,VALID,0,VALID,94.6875,VALID,0,VALID,19.6895,VALID,106,VALID,1.24436,
2002-12-25, 02:31:00,VALID,915.999,VALID,0,VALID,94.6582,VALID,0,VALID,19.6957,VALID,128,VALID,1.4471,
2002-12-25, 02:32:00,VALID,915.982,VALID,0,VALID,94.5959,VALID,0,VALID,19.6955,VALID,114,VALID,1.64844,
2002-12-25, 02:33:00,VALID,915.975,VALID,0,VALID,94.6036,VALID,0,VALID,19.7121,VALID,100,VALID,0.883213,
2002-12-25, 02:34:00,VALID,915.963,VALID,0,VALID,94.6087,VALID,0,VALID,19.699,VALID,126,VALID,1.36309,
2002-12-25, 02:35:00,VALID,915.962,VALID,0,VALID,94.5692,VALID,0,VALID,19.7124,VALID,121,VALID,1.62973,
2002-12-25, 02:36:00,VALID,915.953,VALID,0,VALID,94.6023,VALID,0,VALID,19.7119,VALID,113,VALID,1.20107,
2002-12-25, 02:37:00,VALID,915.928,VALID,0,VALID,94.6239,VALID,0.0169808,VALID,19.7124,VALID,118,VALID,1.18229,
2002-12-25, 02:38:00,VALID,915.492,VALID,0,VALID,94.5069,VALID,0,VALID,19.7119,VALID,125,VALID,1.64884,
2002-12-25, 02:39:00,VALID,915.91,VALID,0,VALID,94.1687,VALID,0.0169808,VALID,19.7251,VALID,116,VALID,1.36959,
2002-12-25, 02:40:00,VALID,915.922,VALID,0,VALID,94.0097,VALID,0.0169808,VALID,19.7345,VALID,110,VALID,1.79228,
2002-12-25, 02:41:00,VALID,915.911,VALID,0,VALID,93.8711,VALID,0,VALID,19.7504,VALID,121,VALID,2.17852,
2002-12-25, 02:42:00,VALID,915.911,VALID,0,VALID,93.7554,VALID,0,VALID,19.7735,VALID,119,VALID,1.42643,
2002-12-25, 02:43:00,VALID,915.895,VALID,0,VALID,93.5647,VALID,0,VALID,19.7735,VALID,112,VALID,1.17947,
2002-12-25, 02:44:00,VALID,915.909,VALID,0,VALID,93.5176,VALID,0,VALID,19.7902,VALID,109,VALID,1.27745,
2002-12-25, 02:45:00,VALID,915.906,VALID,0,VALID,93.4515,VALID,0,VALID,19.7865,VALID,102,VALID,1.38487,
2002-12-25, 02:46:00,VALID,915.911,VALID,0,VALID,93.2709,VALID,-0.0169808,VALID,19.777,VALID,114,VALID,1.51432,
2002-12-25, 02:47:00,VALID,915.91,VALID,0,VALID,93.201,VALID,0,VALID,19.7837,VALID,124,VALID,1.74726,
2002-12-25, 02:48:00,VALID,915.908,VALID,0,VALID,93.0026,VALID,0.0339617,VALID,19.7763,VALID,117,VALID,1.91753,
2002-12-25, 02:49:00,VALID,915.938,VALID,0,VALID,92.9568,VALID,0,VALID,19.7857,VALID,103,VALID,1.27714,
2002-12-25, 02:50:00,VALID,915.941,VALID,0,VALID,92.9518,VALID,0.0169808,VALID,19.8054,VALID,113,VALID,1.5152,
2002-12-25, 02:51:00,VALID,915.929,VALID,0,VALID,92.8055,VALID,0.0509425,VALID,19.8086,VALID,124,VALID,1.84184,
2002-12-25, 02:52:00,VALID,915.931,VALID,0,VALID,92.7941,VALID,0.0169808,VALID,19.8091,VALID,115,VALID,1.07754,
2002-12-25, 02:53:00,VALID,915.92,VALID,0,VALID,92.9047,VALID,0,VALID,19.8185,VALID,117,VALID,1.07956,
2002-12-25, 02:54:00,VALID,915.907,VALID,0,VALID,92.8348,VALID,0,VALID,19.7922,VALID,116,VALID,1.45481,
2002-12-25, 02:55:00,VALID,915.893,VALID,0,VALID,92.9556,VALID,0,VALID,19.7927,VALID,104,VALID,0.924023,
2002-12-25, 02:56:00,VALID,915.884,VALID,0,VALID,93.0242,VALID,0,VALID,19.7827,VALID,131,VALID,0.822163,
2002-12-25, 02:57:00,VALID,915.848,VALID,0,VALID,93.0484,VALID,0,VALID,19.7671,VALID,109,VALID,1.16875,
2002-12-25, 02:58:00,VALID,915.828,VALID,0,VALID,93.2086,VALID,0,VALID,19.7442,VALID,110,VALID,1.125,
2002-12-25, 02:59:00,VALID,915.824,VALID,0,VALID,93.365,VALID,-0.0339617,VALID,19.7283,VALID,116,VALID,0.978516,
2002-12-25, 03:00:01,VALID,915.809,VALID,0,VALID,93.4909,VALID,0.0169808,VALID,19.7029,VALID,123,VALID,0.884291,
2002-12-25, 03:01:00,VALID,915.799,VALID,0,VALID,93.6677,VALID,0,VALID,19.6664,VALID,123,VALID,0.85637,
2002-12-25, 03:02:00,VALID,915.796,VALID,0,VALID,93.8164,VALID,-0.0169808,VALID,19.6503,VALID,124,VALID,0.731291,
2002-12-25, 03:03:00,VALID,915.788,VALID,0,VALID,93.9411,VALID,0.0169808,VALID,19.6378,VALID,106,VALID,0.711143,
2002-12-25, 03:04:00,VALID,915.785,VALID,0,VALID,94.0708,VALID,-0.0169808,VALID,19.6177,VALID,105,VALID,0.759713,
2002-12-25, 03:05:00,VALID,915.779,VALID,0,VALID,94.1941,VALID,-0.0169808,VALID,19.5921,VALID,125,VALID,0.785373,
2002-12-25, 03:06:00,VALID,915.754,VALID,0,VALID,94.2437,VALID,-0.0169808,VALID,19.5797,VALID,145,VALID,0.38598,
2002-12-25, 03:07:00,VALID,915.75,VALID,0,VALID,94.306,VALID,-0.0169808,VALID,19.5662,VALID,136,VALID,0.71176,
2002-12-25, 03:08:00,VALID,915.721,VALID,0,VALID,94.3098,VALID,-0.0339617,VALID,19.5503,VALID,129,VALID,0.703526,
2002-12-25, 03:09:00,VALID,915.702,VALID,0,VALID,94.3289,VALID,-0.0169808,VALID,19.5471,VALID,140,VALID,0.652644,
2002-12-25, 03:10:01,VALID,915.677,VALID,0,VALID,94.32,VALID,0.0169808,VALID,19.5541,VALID,108,VALID,0.640203,
2002-12-25, 03:11:00,VALID,915.674,VALID,0,VALID,94.3124,VALID,-0.0169808,VALID,19.5444,VALID,106,VALID,0.716488,
2002-12-25, 03:12:00,VALID,915.657,VALID,0,VALID,94.2806,VALID,0,VALID,19.5312,VALID,130,VALID,0.813502,
2002-12-25, 03:13:00,VALID,915.661,VALID,0,VALID,94.278,VALID,0,VALID,19.5275,VALID,119,VALID,0.99379,
2002-12-25, 03:14:00,VALID,915.661,VALID,0,VALID,94.1979,VALID,0,VALID,19.5374,VALID,113,VALID,1.21209,
2002-12-25, 03:15:00,VALID,915.67,VALID,0,VALID,94.0644,VALID,0,VALID,19.5374,VALID,113,VALID,1.18729,
2002-12-25, 03:16:00,VALID,915.678,VALID,0,VALID,93.9322,VALID,0,VALID,19.528,VALID,113,VALID,1.13851,
2002-12-25, 03:17:00,VALID,915.666,VALID,0,VALID,93.805,VALID,-0.0169808,VALID,19.5409,VALID,123,VALID,1.21029,
2002-12-25, 03:18:00,VALID,915.666,VALID,0,VALID,93.8063,VALID,0,VALID,19.5573,VALID,130,VALID,0.944227,
2002-12-25, 03:19:00,VALID,915.633,VALID,0,VALID,93.8025,VALID,-0.0169808,VALID,19.5603,VALID,127,VALID,1.13919,
2002-12-25, 03:20:00,VALID,915.639,VALID,0,VALID,93.7223,VALID,0,VALID,19.5469,VALID,121,VALID,1.30489,
2002-12-25, 03:21:00,VALID,915.622,VALID,0,VALID,93.6715,VALID,-0.0169808,VALID,19.5565,VALID,125,VALID,1.19423,
2002-12-25, 03:22:00,VALID,915.62,VALID,0,VALID,93.6651,VALID,0,VALID,19.573,VALID,128,VALID,0.821205,
2002-12-25, 03:23:00,VALID,915.603,VALID,0,VALID,93.6829,VALID,0,VALID,19.5859,VALID,118,VALID,1.00021,
2002-12-25, 03:24:00,VALID,915.602,VALID,0,VALID,93.7045,VALID,-0.0169808,VALID,19.5794,VALID,122,VALID,1.02524,
2002-12-25, 03:25:01,VALID,915.59,VALID,0,VALID,93.7401,VALID,0,VALID,19.5767,VALID,119,VALID,0.670898,
2002-12-25, 03:26:00,VALID,915.587,VALID,0,VALID,93.8025,VALID,0,VALID,19.5633,VALID,123,VALID,0.724301,
2002-12-25, 03:27:00,VALID,915.578,VALID,0,VALID,93.8749,VALID,0,VALID,19.5471,VALID,119,VALID,0.850123,
2002-12-25, 03:28:00,VALID,915.565,VALID,0,VALID,93.8927,VALID,0,VALID,19.5409,VALID,125,VALID,1.10457,
2002-12-25, 03:29:00,VALID,915.544,VALID,0,VALID,93.9818,VALID,-0.0169808,VALID,19.5374,VALID,125,VALID,0.706731,
2002-12-25, 03:30:00,VALID,915.534,VALID,0,VALID,94.0402,VALID,0,VALID,19.5277,VALID,126,VALID,0.708333,
2002-12-25, 03:31:00,VALID,915.526,VALID,0,VALID,94.0364,VALID,-0.0169808,VALID,19.5339,VALID,132,VALID,0.715533,
2002-12-25, 03:32:00,VALID,915.536,VALID,0,VALID,94.0313,VALID,0,VALID,19.5377,VALID,135,VALID,0.557617,
2002-12-25, 03:33:01,VALID,915.537,VALID,0,VALID,94.0352,VALID,0,VALID,19.524,VALID,117,VALID,0.971137,
2002-12-25, 03:34:00,VALID,915.538,VALID,0,VALID,94.0911,VALID,-0.0169808,VALID,19.5374,VALID,103,VALID,0.819444,
2002-12-25, 03:35:00,VALID,915.519,VALID,0,VALID,94.1115,VALID,0,VALID,19.528,VALID,106,VALID,0.947424,